{"data":{"norad_id":68821,"intl_designator":"2026-089V","name":"STARLINK-37421","alt_names":[],"object_type":"PAYLOAD","status":"ACTIVE","operator":null,"country":"US","launch_date":"2026-04-23","launch_site_code":"AFWTR","launch_vehicle":null,"mission":null,"orbit_class":"UNKNOWN","rcs_meters":null,"size_class":null,"mass_kg":null,"dimensions":null,"purposes":["comms"],"wikipedia_slug":null,"has_3d_model":false,"image_url":null,"decayed_at":null,"tle_current":{"epoch":"2026-09-19T23:51:18.761760Z","epoch_age_seconds":83938,"freshness":"FRESH","line1":"1 68821U 26089V   26262.99396715  .00012697  00000+0  39478-3 0  9995","line2":"2 68821  97.2852 108.7972 0001920  88.2294 271.9169 15.33456893 23185","mean_motion":15.33456893,"eccentricity":0.000192,"inclination_deg":97.2852,"raan_deg":108.7972,"arg_perigee_deg":88.2294,"mean_anomaly_deg":271.9169,"bstar":0.00039478,"rev_number":2318,"period_min":93.90547635042,"perigee_km":464.19380970668,"apogee_km":466.82176930585,"semimajor_km":6843.6447895063,"source":"CELESTRAK","updated_at":"2026-09-20T09:00:44.011368Z"}}}